| time (UTC) | temp F | wind direction | speed knots | gust knots | rain 1hr in | rain 24hr in | rain mn in | humidity % | barometer mb |
| 20260504140805 | 59 | 0 | 0.0 | 0.0 | 0.00 | 0.00 | 0.00 | 79 | 1014.8 |
| 20260504140305 | 59 | 0 | 0.0 | 0.0 | 0.00 | 0.00 | 0.00 | 79 | 1014.9 |
| 20260504130305 | 59 | 0 | 0.0 | 0.0 | 0.00 | 0.00 | 0.00 | 79 | 1015.1 |
| 20260504120305 | 59 | 0 | 0.0 | 0.0 | 0.00 | 0.00 | 0.00 | 79 | 1014.6 |
| 20260504110305 | 59 | 160 | 5.2 | 8.7 | 0.00 | 0.00 | 0.00 | 78 | 1014.6 |
| 20260504081805 | 62 | 168 | 6.1 | 12.2 | 0.00 | 0.00 | 0.00 | 72 | 1015.4 |
| 20260504081305 | 62 | 161 | 7.0 | 12.2 | 0.00 | 0.00 | 0.00 | 72 | 1015.4 |
| 20260504080805 | 62 | 158 | 7.8 | 12.2 | 0.00 | 0.00 | 0.00 | 72 | 1015.5 |
| 20260504080305 | 62 | 169 | 7.0 | 12.2 | 0.00 | 0.00 | 0.00 | 71 | 1015.7 |
| 20260504070305 | 63 | 169 | 7.8 | 14.8 | 0.00 | 0.00 | 0.00 | 68 | 1016.6 |
| 20260504050305 | 65 | 167 | 10.4 | 20.9 | 0.00 | 0.00 | 0.00 | 58 | 1017.6 |
| 20260504044805 | 66 | 161 | 10.4 | 17.4 | 0.00 | 0.00 | 0.00 | 57 | 1017.5 |
| 20260504044305 | 66 | 163 | 10.4 | 17.4 | 0.00 | 0.00 | 0.00 | 56 | 1017.6 |
| 20260504043805 | 66 | 163 | 9.6 | 14.8 | 0.00 | 0.00 | 0.00 | 55 | 1017.6 |
| 20260504043305 | 66 | 164 | 10.4 | 13.9 | 0.00 | 0.00 | 0.00 | 54 | 1017.7 |
| 20260504041805 | 67 | 169 | 8.7 | 13.0 | 0.00 | 0.00 | 0.00 | 53 | 1017.7 |
| 20260504041304 | 67 | 164 | 8.7 | 13.9 | 0.00 | 0.00 | 0.00 | 52 | 1017.7 |
| 20260504040804 | 67 | 158 | 10.4 | 17.4 | 0.00 | 0.00 | 0.00 | 52 | 1017.7 |
| 20260504040305 | 67 | 165 | 8.7 | 17.4 | 0.00 | 0.00 | 0.00 | 51 | 1017.7 |
| 20260504034805 | 68 | 165 | 7.8 | 13.9 | 0.00 | 0.00 | 0.00 | 49 | 1017.7 |
| 20260504034305 | 67 | 170 | 7.8 | 12.2 | 0.00 | 0.00 | 0.00 | 49 | 1017.6 |
| 20260504033805 | 67 | 169 | 7.0 | 11.3 | 0.00 | 0.00 | 0.00 | 49 | 1017.6 |
| 20260504033304 | 67 | 158 | 8.7 | 13.0 | 0.00 | 0.00 | 0.00 | 49 | 1017.7 |
| 20260504031805 | 67 | 161 | 7.8 | 12.2 | 0.00 | 0.00 | 0.00 | 50 | 1017.7 |
| 20260504031304 | 67 | 163 | 6.1 | 8.7 | 0.00 | 0.00 | 0.00 | 50 | 1017.6 |
| 20260504030805 | 67 | 159 | 6.1 | 8.7 | 0.00 | 0.00 | 0.00 | 50 | 1017.7 |
| 20260504030305 | 67 | 158 | 6.1 | 8.7 | 0.00 | 0.00 | 0.00 | 50 | 1017.8 |
| 20260504024805 | 68 | 158 | 6.1 | 10.4 | 0.00 | 0.00 | 0.00 | 50 | 1017.7 |
| 20260504023805 | 68 | 158 | 6.1 | 8.7 | 0.00 | 0.00 | 0.00 | 49 | 1017.8 |
| 20260504023305 | 68 | 160 | 6.1 | 8.7 | 0.00 | 0.00 | 0.00 | 48 | 1017.8 |
| 20260504021804 | 69 | 161 | 6.1 | 8.7 | 0.00 | 0.00 | 0.00 | 48 | 1017.5 |
| 20260504021305 | 69 | 161 | 7.0 | 11.3 | 0.00 | 0.00 | 0.00 | 48 | 1017.6 |
| 20260504020804 | 69 | 162 | 7.0 | 8.7 | 0.00 | 0.00 | 0.00 | 48 | 1017.6 |
| 20260504020304 | 69 | 160 | 6.1 | 10.4 | 0.00 | 0.00 | 0.00 | 48 | 1017.6 |
| 20260504014305 | 70 | 161 | 6.1 | 8.7 | 0.00 | 0.00 | 0.00 | 46 | 1017.3 |
| 20260504013304 | 70 | 165 | 5.2 | 11.3 | 0.00 | 0.00 | 0.00 | 45 | 1017.1 |
| 20260504011804 | 71 | 156 | 6.1 | 11.3 | 0.00 | 0.00 | 0.00 | 43 | 1017.1 |
| 20260504011305 | 71 | 161 | 6.1 | 12.2 | 0.00 | 0.00 | 0.00 | 42 | 1017.0 |
| 20260504010805 | 72 | 159 | 6.1 | 10.4 | 0.00 | 0.00 | 0.00 | 41 | 1017.0 |
| 20260504010304 | 72 | 159 | 7.0 | 12.2 | 0.00 | 0.00 | 0.00 | 41 | 1017.0 |
| 20260504004305 | 73 | 165 | 7.8 | 12.2 | 0.00 | 0.00 | 0.00 | 39 | 1016.9 |
| 20260504003805 | 73 | 164 | 7.0 | 13.0 | 0.00 | 0.00 | 0.00 | 39 | 1017.0 |
| 20260504003305 | 73 | 162 | 7.0 | 13.9 | 0.00 | 0.00 | 0.00 | 38 | 1017.0 |
| 20260504001305 | 74 | 172 | 7.8 | 13.9 | 0.00 | 0.00 | 0.00 | 36 | 1017.2 |
| 20260504000804 | 74 | 167 | 6.1 | 13.9 | 0.00 | 0.00 | 0.00 | 37 | 1017.3 |
| 20260504000305 | 74 | 163 | 7.8 | 14.8 | 0.00 | 0.00 | 0.00 | 37 | 1017.4 |
| 20260503234805 | 75 | 182 | 6.1 | 14.8 | 0.00 | 0.00 | 0.00 | 35 | 1017.6 |
| 20260503234304 | 75 | 167 | 11.3 | 15.6 | 0.00 | 0.00 | 0.00 | 35 | 1017.6 |
| 20260503233805 | 75 | 170 | 7.8 | 13.0 | 0.00 | 0.00 | 0.00 | 36 | 1017.7 |
| 20260503231805 | 75 | 161 | 8.7 | 13.0 | 0.00 | 0.00 | 0.00 | 34 | 1017.7 |
| 20260503231304 | 75 | 177 | 7.8 | 14.8 | 0.00 | 0.00 | 0.00 | 34 | 1017.7 |
| 20260503230805 | 76 | 159 | 8.7 | 13.0 | 0.00 | 0.00 | 0.00 | 33 | 1017.6 |
| 20260503230305 | 76 | 156 | 8.7 | 18.2 | 0.00 | 0.00 | 0.00 | 34 | 1017.6 |
| 20260503224805 | 76 | 160 | 7.0 | 12.2 | 0.00 | 0.00 | 0.00 | 32 | 1017.5 |
| 20260503224305 | 77 | 153 | 7.8 | 13.9 | 0.00 | 0.00 | 0.00 | 31 | 1017.6 |
| 20260503223804 | 77 | 166 | 10.4 | 13.9 | 0.00 | 0.00 | 0.00 | 31 | 1017.7 |
| 20260503223305 | 77 | 163 | 7.0 | 18.2 | 0.00 | 0.00 | 0.00 | 30 | 1017.7 |
| 20260503221805 | 78 | 160 | 10.4 | 17.4 | 0.00 | 0.00 | 0.00 | 29 | 1018.1 |
| 20260503221305 | 78 | 166 | 7.0 | 13.0 | 0.00 | 0.00 | 0.00 | 29 | 1018.0 |
| 20260503220804 | 78 | 170 | 9.6 | 13.9 | 0.00 | 0.00 | 0.00 | 30 | 1018.2 |
| 20260503214805 | 78 | 177 | 9.6 | 13.9 | 0.00 | 0.00 | 0.00 | 29 | 1018.4 |
| 20260503214305 | 78 | 159 | 8.7 | 13.0 | 0.00 | 0.00 | 0.00 | 29 | 1018.5 |
| 20260503213804 | 78 | 178 | 5.2 | 13.0 | 0.00 | 0.00 | 0.00 | 30 | 1018.6 |
| 20260503213305 | 77 | 161 | 10.4 | 18.2 | 0.00 | 0.00 | 0.00 | 30 | 1018.7 |
| 20260503211804 | 78 | 162 | 10.4 | 15.6 | 0.00 | 0.00 | 0.00 | 28 | 1018.9 |
| 20260503210805 | 78 | 156 | 11.3 | 20.0 | 0.00 | 0.00 | 0.00 | 28 | 1019.0 |
| 20260503210305 | 78 | 168 | 8.7 | 20.0 | 0.00 | 0.00 | 0.00 | 29 | 1019.3 |
| 20260503204804 | 78 | 208 | 6.1 | 11.3 | 0.00 | 0.00 | 0.00 | 28 | 1019.8 |
| 20260503204305 | 78 | 172 | 8.7 | 20.9 | 0.00 | 0.00 | 0.00 | 29 | 1019.7 |
| 20260503203804 | 78 | 163 | 10.4 | 14.8 | 0.00 | 0.00 | 0.00 | 30 | 1019.6 |
| 20260503203305 | 78 | 163 | 7.8 | 20.9 | 0.00 | 0.00 | 0.00 | 30 | 1019.8 |
| 20260503201805 | 78 | 167 | 8.7 | 15.6 | 0.00 | 0.00 | 0.00 | 29 | 1020.1 |
| 20260503201305 | 78 | 151 | 13.9 | 20.9 | 0.00 | 0.00 | 0.00 | 29 | 1020.2 |
| 20260503200804 | 78 | 154 | 13.9 | 20.9 | 0.00 | 0.00 | 0.00 | 29 | 1020.2 |
| 20260503200305 | 78 | 174 | 10.4 | 18.2 | 0.00 | 0.00 | 0.00 | 28 | 1020.3 |
| 20260503194804 | 79 | 134 | 8.7 | 13.9 | 0.00 | 0.00 | 0.00 | 29 | 1020.6 |
| 20260503194304 | 78 | 145 | 9.6 | 17.4 | 0.00 | 0.00 | 0.00 | 28 | 1020.6 |
| 20260503193805 | 78 | 162 | 7.0 | 17.4 | 0.00 | 0.00 | 0.00 | 28 | 1020.7 |
| 20260503193304 | 78 | 160 | 8.7 | 15.6 | 0.00 | 0.00 | 0.00 | 28 | 1020.7 |
| 20260503191805 | 78 | 185 | 9.6 | 13.9 | 0.00 | 0.00 | 0.00 | 27 | 1020.8 |
| 20260503191305 | 78 | 138 | 6.1 | 13.0 | 0.00 | 0.00 | 0.00 | 27 | 1020.9 |
| 20260503190304 | 78 | 156 | 8.7 | 14.8 | 0.00 | 0.00 | 0.00 | 28 | 1021.0 |
| 20260503184805 | 78 | 168 | 11.3 | 18.2 | 0.00 | 0.00 | 0.00 | 27 | 1021.4 |
| 20260503184305 | 78 | 156 | 7.8 | 14.8 | 0.00 | 0.00 | 0.00 | 29 | 1021.5 |
| 20260503181804 | 78 | 162 | 5.2 | 11.3 | 0.00 | 0.00 | 0.00 | 33 | 1021.8 |
| 20260503181304 | 78 | 181 | 4.3 | 8.7 | 0.00 | 0.00 | 0.00 | 31 | 1021.9 |
| 20260503180804 | 78 | 197 | 7.8 | 12.2 | 0.00 | 0.00 | 0.00 | 32 | 1022.1 |
| 20260503174804 | 77 | 195 | 7.0 | 13.9 | 0.00 | 0.00 | 0.00 | 31 | 1022.6 |
| 20260503174304 | 77 | 184 | 6.1 | 10.4 | 0.00 | 0.00 | 0.00 | 33 | 1022.6 |
| 20260503173804 | 77 | 187 | 4.3 | 10.4 | 0.00 | 0.00 | 0.00 | 35 | 1022.7 |
| 20260503173305 | 77 | 170 | 7.8 | 15.6 | 0.00 | 0.00 | 0.00 | 33 | 1022.8 |
| 20260503171804 | 77 | 168 | 5.2 | 13.0 | 0.00 | 0.00 | 0.00 | 36 | 1022.9 |
| 20260503171304 | 76 | 219 | 5.2 | 11.3 | 0.00 | 0.00 | 0.00 | 36 | 1023.0 |
| 20260503170805 | 76 | 143 | 7.8 | 14.8 | 0.00 | 0.00 | 0.00 | 35 | 1023.0 |
| 20260503150805 | 68 | 198 | 1.7 | 5.2 | 0.00 | 0.01 | 0.00 | 61 | 1024.0 |
| 20260503150304 | 67 | 248 | 0.9 | 4.3 | 0.00 | 0.01 | 0.00 | 61 | 1024.0 |